Location: Edinburgh
(55.9500°N, 3.1600°W)
Time: 17:18:02
(UTC+00:00)

Envisat - Pass Details

Date: 16 October 2017
Orbit: 764 x 766 km, 98.2° (Epoch: 10 December)

Event Time Altitude Azimuth Distance (km) Brightness Sun altitude
Exits shadow 22:25:48 13° 246° (WSW) 2,124 5.5 -34.6°
Maximum altitude 22:28:04 16° 275° (W) 1,910 5.5 -34.8°
Drops below altitude 10° 22:31:14 10° 314° (NW) 2,318 6.3 -35.1°
Sets 22:34:27 0° 335° (NNW) 3,251 7.1 -35.5°
